Overview Statistics Trail Chart Weather Telemetry Raw packets
 

This is the latest recevied weather packets stored in our database for station/object WW6Q. If no packets are shown the sender has not sent any weather packets the latest 10 day(s).

<< 90 91 92 93 94 95 96 >>
Time Temp. Humidity Pressure Rain* Wind** Luminosity Snow
1787958770 23.89° C 67% 1019.9 hPa 0 mm - 39 W/m² -
1787958466 24.44° C 65% 1019.8 hPa 0 mm - 40 W/m² -
1787958161 24.44° C 56% 1019.9 hPa 0 mm - 41 W/m² -
1787957855 24.44° C 55% 1019.9 hPa 0 mm - 43 W/m² -
1787957548 24.44° C 47% 1020.1 hPa 0 mm - 44 W/m² -
1787957244 24.44° C 46% 1020 hPa 0 mm - 46 W/m² -
1787956939 24.44° C 46% 1019.9 hPa 0 mm - 47 W/m² -
1787956638 25° C 53% 1019.9 hPa 0 mm - 49 W/m² -
1787956333 25° C 54% 1020 hPa 0 mm - 51 W/m² -
1787956036 25° C 56% 1019.9 hPa 0 mm - 52 W/m² -
1787955724 25° C 55% 1019.9 hPa 0 mm - 55 W/m² -
1787955420 25° C 49% 1020 hPa 0 mm - 56 W/m² -
1787955118 25° C 50% 1020 hPa 0 mm - 58 W/m² -
1787954814 25° C 50% 1020.2 hPa 0 mm - 59 W/m² -
1787954510 25.56° C 49% 1020 hPa 0 mm - 59 W/m² -
1787954210 25.56° C 50% 1019.9 hPa 0 mm - 60 W/m² -
1787953910 25.56° C 46% 1019.9 hPa 0 mm - 61 W/m² -
1787953609 25.56° C 48% 1020.1 hPa 0 mm - 62 W/m² -
1787953304 25.56° C 47% 1019.8 hPa 0 mm - 64 W/m² -
1787953002 25.56° C 48% 1019.9 hPa 0 mm - 64 W/m² -
1787952702 25.56° C 47% 1020.1 hPa 0 mm - 102 W/m² -
1787952402 25.56° C 46% 1020.2 hPa 0 mm - 66 W/m² -
1787952107 26.11° C 48% 1020.1 hPa 0 mm - 68 W/m² -
1787951797 25.56° C 49% 1020 hPa 0 mm - 70 W/m² -
1787951493 25.56° C 51% 1020 hPa 0 mm - 72 W/m² -

* Rain latest hour (hover to see other rain measurements)
** Current wind speed in m/s (hover to see current wind gust speed)